星链-2380 (STARLINK-2380 )

导读

STARLINK-2380是美国SpaceX公司星链(Starlink)星座的一员,于2021年3月11日发射入轨。作为低轨通信卫星,它隶属于星链全球卫星互联网项目,依托相控阵天线与霍尔推进技术,为全球偏远地区提供低延迟高速宽带服务,推动太空互联网基础设施建设,单星设计寿命约5-7年,退役后将主动离轨在大气层焚毁。

基本信息
目录编号:
47799
目录名称:
STARLINK-2380
国际标识:
2021-018N
轨道中心:
EARTH
卫星名称:
星链-2380
卫星全名:
星链-2380 (STARLINK-2380 )
卫星状态:
在轨 (已飞行1925 天)
发射日期:
2021-03-11 UTC
国别 :
美国 (US)
星等 :
--
轨道信息
数据来源 国际轨道数据 AOE轨道数据
星历时间 2026-06-18T10:32:19+0800
14小时前
查看轨道信息
2026-06-15T23:00:00+0800
3天前
查看轨道信息
半长轴 6848.848km 6848.933km
偏心率 0.0001689 0.0002143
轨道倾角 53.158° 53.155°
近地点辐角 86.643° 66.266°
升交点赤经 124.998° 136.547°
平近点角 273.476° 286.841°
近地点 469.554km 469.328km
远地点 471.868km 472.264km
周期 94.013分钟 94.014分钟
每日圈数 15.317099 15.316813
详细信息
固有亮度:
5
最大亮度:
2.5
卫星平台:
Starlink V1.0
覆盖范围:
全球
运营商:
太空探索技术公司
运营商所在国:
美国
制造商(研发单位):
太空探索技术公司
制造商所在国:
美国
使用方式:
暂无
卫星简介
星链(Starlink)计划是由太空探索技术公司(SpaceX)提出的一个巨型低轨卫星互联网星座项目,计划在2019年至2024年间在太空搭建由约1.2万颗卫星组成的“星链”网络,其中1584颗将部署在地球上空550千米处的近地轨道,并从2020年开始工作。该卫星仍在工作。
2D轨道图
3D轨道图
轨道高度分析图
轨道倾角分析图
轨道综合分析图
查看轨道综合分析图